Location: Laverne
(36.7100°N, 99.8930°W)
Time: 00:39:41
(UTC-06:00)

Cosmos 44 Rocket - Pass Details

Date: 19 October 2017
Orbit: 656 x 734 km, 65.1° (Epoch: 20 November)

Event Time Altitude Azimuth Distance (km) Brightness Sun altitude
Exits shadow 05:59:45 63° 241° (WSW) 773 3.2 -23.0°
Drops below altitude 10° 06:04:36 10° 163° (SSE) 2,168 6.0 -22.0°
Sets 06:06:59 0° 160° (SSE) 3,095 6.9 -21.5°
